This demonstration page uses our WeatherBlox Daily Observations layout. Learn more.

Left ArrowRight Arrow

Hourly Observations for November 30, 2021

Temp ( °F °C ) Dew Point ( °F °C ) Humidity (%) Winds ( mph kmh ) Pressure ( in mb ) Visibility ( mi km ) Precip ( " mm )
12:15 am 00:15 Clear 32 -0.2 26 -3.1 81 81 W 8 13 30.17 1022 10 16 0.00 0.00
12:35 am 00:35 Partly Cloudy 32 0.2 27 -2.8 81 81 W 6 9 30.17 1022 10 16 0.00 0.00
12:55 am 00:55 Partly Cloudy 33 0.7 28 -2.1 82 82 WSW 7 11 30.17 1022 10 16 0.00 0.00
1:15 am 01:15 Clear 34 1.2 28 -2 79 79 W 8 13 30.17 1022 10 16 0.00 0.00
1:35 am 01:35 Clear 35 1.5 28 -2 78 78 NW 6 9 30.17 1022 10 16 0.00 0.00
1:55 am 01:55 Clear 34 1 28 -2 81 81 NNW 3 6 30.18 1022 10 16 0.00 0.00
2:15 am 02:15 Clear 34 1.1 28 -2 80 80 W 3 6 30.19 1022 10 16 0.00 0.00
2:35 am 02:35 Clear 34 1 29 -1.8 82 82 WNW 3 6 30.20 1023 10 16 0.00 0.00
2:55 am 02:55 Clear 33 0.7 29 -1.9 83 83 WNW 6 9 30.21 1023 10 16 0.00 0.00
3:15 am 03:15 Clear 33 0.7 28 -2 82 82 NW 3 6 30.21 1023 10 16 0.00 0.00
3:35 am 03:35 Clear 32 0 28 -2.2 85 85 NW 7 11 30.23 1024 10 16 0.00 0.00
3:55 am 03:55 Clear 33 0.5 29 -1.5 87 87 WNW 7 11 30.21 1023 10 16 0.00 0.00
4:15 am 04:15 Clear 34 0.9 29 -1.4 85 85 NW 7 11 30.21 1023 10 16 0.00 0.00
4:35 am 04:35 Clear 33 0.7 29 -1.5 85 85 WNW 5 7 30.22 1023 10 16 0.00 0.00
4:55 am 04:55 Clear 34 1 30 -1.2 85 85 NW 5 7 30.22 1023 10 16 0.00 0.00
5:15 am 05:15 Clear 34 1.2 30 -1 85 85 NNW 7 11 30.23 1024 10 16 0.00 0.00
5:35 am 05:35 Clear 35 1.6 30 -0.9 84 84 NNW 7 11 30.23 1024 10 16 0.00 0.00
5:55 am 05:55 Clear 35 1.9 31 -0.5 84 84 N 6 9 30.24 1024 10 16 0.00 0.00
6:15 am 06:15 Clear 36 2.4 32 -0.2 83 83 NNE 3 6 30.22 1023 10 16 0.00 0.00
6:35 am 06:35 Clear 37 2.5 31 -0.6 80 80 W 5 7 30.25 1024 10 16 0.00 0.00
6:55 am 06:55 Clear 35 1.5 31 -0.5 87 87 Calm 30.25 1024 10 16 0.00 0.00
7:15 am 07:15 Clear 35 1.6 31 -0.6 85 85 WNW 8 13 30.27 1025 10 16 0.00 0.00
7:35 am 07:35 Clear 36 2 32 -0.2 86 86 WNW 6 9 30.27 1025 10 16 0.00 0.00
7:55 am 07:55 Sunny 35 1.6 31 -0.3 87 87 W 7 11 30.28 1025 10 16 0.00 0.00
8:15 am 08:15 Partly Cloudy 35 1.7 32 -0.2 87 87 WNW 6 9 30.29 1026 10 16 0.00 0.00
8:35 am 08:35 Partly Cloudy 37 2.5 32 0 84 84 WNW 8 13 30.29 1026 10 16 0.00 0.00
8:55 am 08:55 Cloudy 38 3.5 33 0.4 80 80 WNW 7 11 30.30 1026 10 16 0.00 0.00
9:15 am 09:15 Cloudy 40 4.2 33 0.8 79 79 WNW 5 7 30.30 1026 10 16 0.00 0.00
9:35 am 09:35 Cloudy 41 5.1 33 0.8 74 74 NW 6 9 30.30 1026 10 16 0.00 0.00
9:55 am 09:55 Mostly Cloudy 43 6.1 34 1.3 72 72 Calm 30.29 1026 10 16 0.00 0.00
10:15 am 10:15 Partly Cloudy 46 7.8 35 1.5 65 65 Calm 30.25 1024 10 16 0.00 0.00
10:35 am 10:35 Sunny 48 9 35 1.9 61 61 Calm 30.24 1024 10 16 0.00 0.00
10:55 am 10:55 Sunny 50 9.8 35 1.9 58 58 SSE 3 6 30.22 1023 10 16 0.00 0.00
11:15 am 11:15 Partly Cloudy 51 10.3 35 1.9 56 56 S 6 9 30.20 1023 10 16 0.00 0.00
11:35 am 11:35 Partly Cloudy 53 11.7 35 1.5 50 50 S 7 11 30.18 1022 10 16 0.00 0.00
11:55 am 11:55 Sunny 55 12.7 35 1.7 47 47 SSE 6 9 30.16 1021 10 16 0.00 0.00
12:15 pm 12:15 Sunny 56 13.3 35 1.7 46 46 SSE 5 7 30.14 1021 10 16 0.00 0.00
12:35 pm 12:35 Sunny 57 13.7 35 1.7 44 44 S 6 9 30.12 1020 10 16 0.00 0.00
12:55 pm 12:55 Sunny 58 14.5 35 1.7 42 42 Calm 30.10 1019 10 16 0.00 0.00
1:15 pm 13:15 Sunny 59 14.9 35 1.7 41 41 S 7 11 30.09 1019 10 16 0.00 0.00
1:35 pm 13:35 Sunny 59 14.9 35 1.4 40 40 S 9 15 30.07 1018 10 16 0.00 0.00
1:55 pm 13:55 Sunny 60 15.5 35 1.4 39 39 SSE 8 13 30.06 1018 10 16 0.00 0.00
2:15 pm 14:15 Sunny 60 15.8 34 1.2 37 37 S 8 13 30.05 1018 10 16 0.00 0.00
2:35 pm 14:35 Sunny 60 15.6 34 1.2 38 38 SSW 12 19 30.05 1018 10 16 0.00 0.00
2:55 pm 14:55 Sunny 59 15.2 34 1.3 39 39 SSW 10 17 30.03 1017 10 16 0.00 0.00
3:15 pm 15:15 Sunny 59 14.9 35 1.5 40 40 SSW 12 19 30.03 1017 10 16 0.00 0.00
3:35 pm 15:35 Sunny 58 14.7 35 1.5 41 41 SSW 13 20 30.02 1017 10 16 0.00 0.00
3:55 pm 15:55 Sunny 58 14.5 35 1.6 42 42 S 12 19 30.01 1016 10 16 0.00 0.00
4:15 pm 16:15 Sunny 57 13.9 35 1.7 44 44 S 10 17 30.02 1016 10 16 0.00 0.00
4:35 pm 16:35 Sunny 55 12.9 35 1.7 47 47 SSW 7 11 30.01 1016 10 16 0.00 0.00
4:55 pm 16:55 Sunny 53 11.5 35 1.5 51 51 SSW 6 9 30.04 1017 10 16 0.00 0.00
5:15 pm 17:15 Clear 51 10.5 34 1.3 53 53 SSW 5 7 30.04 1017 10 16 0.00 0.00
5:35 pm 17:35 Clear 49 9.5 34 1.1 56 56 S 6 9 30.05 1017 10 16 0.00 0.00
6:15 pm 18:15 Clear 47 8.6 34 1 59 59 S 9 15 30.02 1017 10 16 0.00 0.00
6:35 pm 18:35 Clear 47 8.5 34 1.1 60 60 S 8 13 30.01 1016 10 16 0.00 0.00
6:55 pm 18:55 Clear 47 8.6 34 1.1 60 60 S 6 9 30.00 1016 10 16 0.00 0.00
7:15 pm 19:15 Clear 49 9.5 35 1.5 58 58 S 7 11 30.00 1016 10 16 0.00 0.00
7:35 pm 19:35 Clear 48 9 35 1.4 59 59 S 7 11 30.00 1016 10 16 0.00 0.00
7:55 pm 19:55 Clear 47 8.5 35 1.5 62 62 S 7 11 30.01 1016 10 16 0.00 0.00
8:15 pm 20:15 Clear 48 8.8 35 1.6 61 61 S 6 9 30.00 1016 10 16 0.00 0.00
8:35 pm 20:35 Clear 49 9.6 35 1.8 59 59 S 3 6 29.99 1016 10 16 0.00 0.00
8:55 pm 20:55 Clear 49 9.5 35 1.8 59 59 Calm 30.00 1016 10 16 0.00 0.00
9:15 pm 21:15 Clear 50 10 36 2.2 59 59 Calm 29.99 1016 10 16 0.00 0.00
9:35 pm 21:35 Clear 50 10.2 36 2.3 58 58 W 3 6 29.99 1016 10 16 0.00 0.00
9:55 pm 21:55 Clear 50 9.9 37 2.5 60 60 WSW 5 7 29.98 1015 10 16 0.00 0.00
10:15 pm 22:15 Clear 50 10.1 36 2.3 59 59 WSW 7 11 29.98 1015 10 16 0.00 0.00
10:35 pm 22:35 Partly Cloudy 49 9.6 36 2.1 60 60 W 8 13 29.99 1016 10 16 0.00 0.00
10:55 pm 22:55 Mostly Cloudy 48 9 36 2 62 62 W 7 11 30.00 1016 10 16 0.00 0.00
11:15 pm 23:15 Cloudy 47 8.6 36 2 64 64 W 7 11 30.00 1016 10 16 0.00 0.00
11:35 pm 23:35 Cloudy 46 7.8 35 1.8 66 66 W 8 13 30.01 1016 10 16 0.00 0.00
11:55 pm 23:55 Partly Cloudy 42 5.3 33 0.5 71 71 W 9 15 30.04 1017 10 16 0.00 0.00

Powered by AerisWeather